Tracking 27402 objects as of 2-Jun-2023
HD Live streaming from Space Station
objects crossing your sky now

FENGYUN 1C DEB

Track FENGYUN 1C DEB now!
10-day predictions


NORAD ID: 37421
Int'l Code: 1999-025EGP
Perigee: 811.5 km
Apogee: 1,426.9 km
Inclination: 98.9 °
Period: 107.5 minutes
Semi major axis: 7490 km
RCS: 0.0016 m2 (small)
Launch date: May 10, 1999
Source: People's Republic of China (PRC)
Launch site: Taiyaun Space Center, China (TSC)

Note: This is SATELLITE DEBRIS
Your satellite tracking list
Your tracking list is empty




NASA's NSSDC Master Catalog

Two Line Element Set (TLE):
1 37421U 99025EGP 23150.39253144  .00000291  00000-0  37597-3 0  9990
2 37421  98.8821 207.9582 0410810 255.8268  99.6903 13.39248192485272
Source of the keplerian elements: AFSPC